Terminal Aerodrome Forecast
Issued by NWS

Home | Current Version | Previous Version | Graphics & Text | Print | Product List | Glossary On
Versions: 1 2 3 4 5 6 7 8 9 10 11 12 13 14 15 16 17 18 19 20 21 22 23 24 25 26 27 28 29 30 31 32 33 34 35 36 37 38 39 40 41 42 43 44 45 46 47 48 49 50
000
FTUS43 KLOT 241400 AAA
TAFGYY
TAF AMD
KGYY 241402Z 2414/2512 01009KT 5SM -RA BR SCT008 OVC018
     FM241700 32013G22KT 2SM -RASN BR OVC006
      TEMPO 2417/2420 1SM -SN BR VV003
     FM250100 28015KT 3SM -SN BR OVC007
     FM250600 26012KT P6SM OVC015=

USA.gov is the U.S. government's official web portal to all federal, state and local government web resources and services.